{"data":{"norad_id":81819,"epoch":"2026-05-22T05:54:16.852896Z","epoch_age_seconds":313282,"freshness":"STALE","line1":"1 81819U          26142.24602839  .00000346  00000+0  26415-2 0  9998","line2":"2 81819 102.1730 246.6835 0038636 173.7341 186.4216 12.47945901568031","mean_motion":12.47945901,"eccentricity":0.0038636,"inclination_deg":102.173,"raan_deg":246.6835,"arg_perigee_deg":173.7341,"mean_anomaly_deg":186.4216,"bstar":0.0026415,"rev_number":56803,"period_min":115.3896173581,"perigee_km":1442.7644254246,"apogee_km":1503.4324920614,"semimajor_km":7851.235458743,"source":"CELESTRAK","updated_at":"2026-05-25T13:38:11.084727Z"}}